EUTELSAT 3B

Last updated on June 17, 2019, 3:36 a.m. UTC

1 39773U 14030A   19167.15899538  .00000012  00000-0  00000+0 0  9991
2 39773   0.0636  25.6428 0005038 117.6339 181.1801  1.00272744 18566
UTC
Height (km)
Latitude
Longitude
Inclination
Orbital Period
UTC large
Height (km)
Speed (km/s)
/
Latitude / Longitude
Inclination (degrees)
Orbital Period (minutes)
Azimuth
Elevation
Range (km)
Doppler Factor
iOS Compass Heading
iOS Angle

Next 30 passes for location: Hong Kong

Rise time Rise Azimuth (degrees) Set time Set Azimuth (degrees) Duration Max altitude (degrees)

No matching passes for this satellites